Погода в Будапеште

Венгрия     47°29′33″N   19°03′05″E
темп.,
°C
ветер,
м/с
пор.,
м/с
влажн.,
%
обл.,
%
осадки,
мм/ч
давл.,
гПа
погр.,
м
13 августа, сб
сб1323:00+24ссв483499 0.0 1015451
02:00+22св2650100 0.0 1015273
05:00+20св2462100 0.0 1013195
08:00+22св2256100 0.0 1013379
11:00+26зюз1143100 0.0 10131162
14:00+30св1228100 0.0 10112674
17:00+29ссз2226100 0.0 10102483
20:00+23зюз4652100 0.0 1011337
14 августа, вс
вс1423:00+22зюз2354100 0.0 1011248
02:00+21зсз1260100 0.0 1011140
05:00+20с1262100 0.0 1010122
08:00+22св1155100 0.0 1011376
11:00+27вюв114220 0.0 10101025
14:00+30ююв223066 0.0 10092096
17:00+31ююз222763 0.0 10072574
20:00+28з353332 0.0 1007235
15 августа, пн
пн1523:00+26сз2540100 0.0 1007257
02:00+26ссз13417 0.0 1007152
05:00+23с224613 0.0 100774
08:00+25в11440 0.0 1008414
11:00+30вюв11310 0.0 10071093
14:00+33ююв232465 0.0 10063031
17:00+33з132351 0.1 10052888
20:00+30ссз252989 0.1 1005409
16 августа, вт
вт1623:00+27ююз233857 0.3 1006109
02:00+26сз123987 0.3 100749
05:00+24с224433 0.0 100782
08:00+26ссз11405 0.0 1009275
11:00+32сз34295 0.0 10091629
14:00+34зсз34225 0.0 10083476
17:00+35ссз231979 0.0 10083321
20:00+31зсз362463 0.0 1008325
17 августа, ср
ср1723:00+27всв454196 0.0 1011362
02:00+25всв35473 0.0 1011345
05:00+24ссв12510 0.0 1011105
08:00+26всв12450 0.0 1012340
11:00+31вюв11310 0.0 1012914
14:00+35вюв24210 0.0 10103004
17:00+36юв141843 0.0 10093440
20:00+33всв11223 0.0 100915